Location: Demmingen
(48.6757°N, 10.4375°E)
Time: 14:23:00
(UTC+00:00)

CZ-2C R/B - Pass Details

Date: 09 August 2024
Orbit: 782 x 869 km, 98.3° (Epoch: 15 September)

Event Time Altitude Azimuth Distance (km) Brightness Sun altitude
Exits shadow 01:08:47 36° 168° (SSE) 1,323 3.3 -21.5°
Maximum altitude 01:11:10 86° 253° (WSW) 861 2.6 -21.3°
Drops below altitude 10° 01:16:40 10° 345° (NNW) 2,464 5.7 -20.9°
Sets 01:19:01 0° 346° (NNW) 3,390 6.5 -20.7°
